Regional Weather Roundup
Issued by NWS Charleston, SC

Current Version | Previous Version | Text Only | Print | Product List | Glossary Off
Versions: 1 2 3 4 5 6 7 8 9 10 11 12 13 14 15 16 17 18 19 20 21 22 23 24 25 26 27 28 29 30 31 32 33 34 35 36 37 38 39 40 41 42 43 44 45 46 47 48 49 50

000
ASUS42 KCHS 230427
RWRCHS

Regional Weather Roundup
National Weather Service Charleston SC
1200 AM EDT MON APR 23 2018

NOTE: "fair" indicates few or no clouds below 12,000 feet with no
significant weather and/or obstructions to visibility.

Not all stations are quality controlled. Use data with caution,
especially dewpoint observations.

SCZ027-030-031-034>040-042>050-230500-
...Southeast South Carolina...

CITY           SKY/WX    TMP DP  RH WIND       PRES   REMARKS
N Charleston   LGT RAIN  66  54  65 E18       30.21F
Waterfront Prk   N/A     66  58  75 E17       30.07
Mount Pleasant FAIR      64  55  72 E9G22     30.20F
Johns Island   FAIR      66  59  77 E13G23    30.19F
Pinopolis        N/A     63  57  82 E6G13     30.13
Moncks Corner  FAIR      63  50  63 E8        30.22F
Summerville    FAIR      64  52  63 E9G17     30.19F
Beaufort MCAS  FAIR      68  59  73 E17G24    30.17F
Beaufort Arpt  FAIR      64  57  77 E12G20    30.17S
Hilton Head Is FAIR      66  59  77 E9G16     30.17F
Walterboro     FAIR      63  54  72 E8        30.19S
Allendale      MOCLDY    64  55  72 E6        30.16F

...Southern Midlands and Pee Dee...

CITY           SKY/WX    TMP DP  RH WIND       PRES   REMARKS
Georgetown     DRIZZLE   61  55  82 E14G21    30.25F
Kingstree      FAIR      59  54  82 E9        30.24F
Orangeburg     FAIR      62  53  72 SE10      30.21F
Barnwell       CLOUDY    63  54  72 E10G16    30.17F
Aiken          CLOUDY    59  54  82 E8        30.20F
Manning        FAIR      55  50  82 SE6       30.23S
Columbia       MOCLDY    61  58  90 E12       30.20F
Sumter         CLOUDY    60  53  77 E9        30.22S
Florence       MOCLDY    61  51  70 SE7       30.27S
Myrtle Beach   CLOUDY    62  57  83 E13       30.29F
N Myrtle Beach FAIR      63  55  75 E10       30.29S

$$

GAZ063-065-086>088-099>101-113>116-118-119-134>141-150-230500-
...Southeast Georgia...

CITY           SKY/WX    TMP DP  RH WIND       PRES   REMARKS
Savannah Arpt  CLOUDY    66  60  81 E14       30.14F
Hunter AAF     FAIR      67  60  78 E16       30.11F
Fort Stewart   LGT RAIN  65  61  88 E8        30.11F
Statesboro     RAIN      64  56  74 SE5       30.13F
Sylvania       LGT RAIN  64  59  82 E10G17    30.14F
Claxton        CLOUDY    64  61  90 NE7       30.12F

...CSRA, Central and far Southeast Georgia...

CITY           SKY/WX    TMP DP  RH WIND       PRES   REMARKS
Thomson        CLOUDY    58  55  90 S9        30.19F
Augusta-Bush   MOCLDY    60  56  86 E6        30.15F
Augusta-Daniel MOCLDY    62  55  77 E12       30.16F
Swainsboro     CLOUDY    64  57  77 SE16G22   30.11S
Vidalia        CLOUDY    64  61  88 E12       30.09F
Eastman        DRIZZLE   65  54  67 SE10      30.09F
Hazlehurst     CLOUDY    67  59  77 SE8G20    30.09R
Alma           CLOUDY    66  61  84 E13G21    30.08F
Waycross       CLOUDY    67  64  90 E15G24    30.08S
Jesup          NOT AVBL
Baxley         MOCLDY    63  63 100 SE12G17   30.09S
Brunswick      LGT RAIN  64  63  94 E16G25    30.13F
Saint Simons   LGT RAIN  67  65  93 E15       30.11F

$$

SCZ027-028-034-036>038-045-046-048>050-GAZ119-141-230500-
...Lake and Supplemental Coastal Observations...

STATION/POSITION TIME  TEMP    WIND        PRES    WAVE   SWELL
                       AIR SEA DIR/SP/G            HT/PER HT/PER/DIR
                 (UTC) (F)     (DEG/KT/KT) (MB)    (FT/S) (FT/S/D)
Winyah Bay       0345   64     100/ 11     1025.0S
Lake Murray      0320   62     100/ 12/ 18 1022.4
ACE Basin NERRS  0345   66     350/  5       N/A
Fort Pulaski     0400   67 65  100/ 19/ 22 1021.0
Sapelo Island    0400   66     100/  8     1020.0

$$

ANZ835-935-AMZ111-154-330-350-352-354-370-450-454-472-230500-
...C-MAN and Buoy Observations...

STATION/POSITION TIME  TEMP    WIND        PRES    WAVE   SWELL
                       AIR SEA DIR/SP/G            HT/PER HT/PER/DIR
                 (UTC) (F)     (DEG/KT/KT) (MB)    (FT/S) (FT/S/D)
Buoy 41004       0410   69     100/ 17/ 21 1023.2
Buoy 41008       0350   67 65  120/ 19/ 23 1019.7F   6/ 7   2/ 80/12
Folly Beach CMAN 0400   65      70/ 16/ 18 1023.2F
Capers Nearshore 0408   65 64   90/ 16/ 21 1023.6F
Fripp Nearshore  0408   66 64   90/ 14/ 19 1021.0F


STATION/POSITION TIME  TEMP    WIND        PRES    WAVE   SWELL
                       AIR SEA DIR/SP/G            HT/PER HT/PER/DIR
                 (UTC) (F)     (DEG/KT/KT) (MB)    (FT/S) (FT/S/D)
5E St. Marys GA  0400      67                N/A     7/ 7
Frying Pan Buoy  0410   67 70  110/ 17/ 21 1025.7
Buoy 41025       0410   65 74  100/ 12/ 16 1028.9
Cape Lookout NC  0400          110/ 12/ 13 1027.9R
Buoy 41002       0410   67 72  110/ 16/ 19 1024.7
Buoy 41010       0410   74     100/ 23/ 29 1020.6
St Augustine FL  0400   70 69  120/ 12/ 13 1018.5F


$$




USA.gov is the U.S. government's official web portal to all federal, state and local government web resources and services.